Location: Coupvray
(48.8929°N, 2.7967°E)
Time: 04:46:12
(UTC+00:00)

Cosmos 1656 - Pass Details

Date: 14 July 2020
Orbit: 800 x 848 km, 71.1° (Epoch: 06 August)

Event Time Altitude Azimuth Distance (km) Brightness Sun altitude
Rises 00:43:29 0° 333° (NNW) 3,320 7.6 -18.6°
Reaches altitude 10° 00:45:56 10° 337° (NNW) 2,385 6.8 -18.6°
Maximum altitude 00:51:19 60° 58° (ENE) 916 4.1 -18.4°
Enters shadow 00:56:29 11° 138° (SE) 2,304 5.7 -18.1°
